Wind_Speed
42 42 41 42 42 43 44 45 47 48 49 49 51 52 53 53 54 56 56 57 57 58 59 60 60 61 61 61 61 61 61 61 61 61 62 62 62 62 61 61 61 60 60
41 41 42 43 43 44 45 47 48 49 51 52 54 55 56 57 57 58 59 59 60 61 61 61 61 61 61 61 60 60 60 60 60 59 59 60 60 59 59 58 58 58 57
41 41 42 43 45 46 48 50 51 53 55 56 57 57 58 58 59 59 60 61 61 62 62 62 62 61 61 60 60 59 59 58 58 57 57 57 57 57 56 56 55 55 54
41 42 43 45 46 48 50 52 53 54 56 57 57 57 58 59 60 60 60 61 61 61 61 61 61 61 60 59 58 58 57 56 56 55 55 55 55 54 53 52 51 50 49
40 41 43 45 47 49 51 52 53 54 55 56 56 57 58 58 59 59 60 60 60 60 60 60 59 58 58 57 56 55 54 54 54 53 52 51 50 49 48 47 45 43 41
39 41 43 44 46 47 48 49 50 50 52 53 54 55 56 57 58 58 58 58 57 57 57 56 55 54 54 53 53 52 51 50 49 48 47 45 44 43 41 39 37 34 32
38 39 40 41 43 45 46 47 48 49 50 51 53 54 55 55 55 55 55 55 54 54 53 52 50 49 48 48 47 47 46 45 43 41 39 37 35 34 32 30 29 26 25
36 38 39 40 42 43 44 46 47 48 49 50 51 52 52 52 51 52 51 51 49 48 47 46 45 44 44 42 41 40 39 36 33 30 29 28 26 25 24 22 21 21 22
36 37 39 40 41 42 43 45 46 47 48 48 48 48 48 48 48 47 47 45 44 42 41 40 38 37 36 34 32 30 28 26 24 22 20 19 19 17 16 16 17 18 19
35 36 37 38 40 41 42 43 44 44 44 44 45 45 45 44 44 42 40 38 37 36 34 32 30 28 26 24 22 20 19 17 16 14 14 13 12 12 13 14 15 16 17
32 34 35 36 37 38 39 39 39 40 40 40 40 39 39 38 37 35 34 32 31 29 26 24 22 19 18 16 14 13 12 11 10 9 9 10 10 11 12 13 14 15 15
29 30 31 32 33 34 34 34 34 34 33 34 33 32 32 30 29 27 26 25 23 21 18 16 14 12 10 10 9 8 7 7 7 7 8 9 10 11 12 12 13 14 14
27 28 29 30 30 30 30 29 28 28 29 28 27 26 24 23 21 20 19 17 15 12 10 9 7 6 6 6 6 6 6 6 6 7 8 9 10 11 12 12 13 14 14
25 25 26 26 26 26 26 25 25 25 24 23 23 21 19 17 16 14 12 9 8 6 5 4 4 5 5 5 6 6 6 6 7 8 9 10 12 13 13 14 14 14 15
21 21 22 23 23 23 23 22 22 21 20 19 18 17 14 12 11 9 7 6 5 5 5 5 6 7 7 7 8 8 8 8 9 10 11 12 13 14 15 15 16 16 16
19 20 20 20 20 20 20 19 18 17 16 15 14 13 11 10 9 8 7 7 7 8 8 9 9 9 9 9 9 9 10 10 11 12 13 14 15 16 16 17 17 17 16
18 18 17 17 17 17 16 16 15 14 13 12 11 10 10 9 9 9 9 9 9 10 10 10 10 10 10 9 10 10 11 11 12 13 15 15 16 17 17 18 18 17 16
16 15 15 15 14 14 13 13 13 12 11 10 10 9 9 9 10 10 10 10 11 11 11 11 10 10 10 10 10 11 11 13 14 15 16 17 17 18 18 18 18 17 16
13 13 12 12 12 12 12 12 11 11 10 10 9 9 10 10 11 11 11 11 12 12 11 11 11 11 11 10 11 11 12 13 15 16 17 17 18 18 18 18 18 17 16
11 11 11 11 11 11 11 10 10 10 9 9 10 10 11 11 11 12 12 12 12 12 11 11 11 11 11 11 11 12 13 14 15 16 17 18 18 18 19 19 18 17 16
11 10 10 10 10 10 10 10 10 10 10 10 10 11 11 11 12 12 12 12 12 11 11 11 11 12 12 12 12 13 14 15 16 17 18 18 18 18 18 19 18 18 17
10 10 10 10 10 9 10 10 10 10 10 10 11 11 12 12 12 12 11 11 11 11 11 11 11 11 12 12 13 14 14 15 16 17 17 18 18 18 18 18 18 19 18
9 9 9 10 10 10 10 10 10 10 11 11 11 12 12 12 12 11 11 11 10 10 11 11 11 12 12 13 14 14 15 16 16 17 18 18 19 19 19 19 19 19 19
9 9 9 9 10 10 10 10 10 10 11 11 11 11 11 11 11 11 11 11 11 11 11 11 12 12 13 13 14 15 15 15 16 17 17 18 19 19 19 19 19 19 19
9 9 9 9 9 9 9 9 9 9 10 10 10 10 10 11 11 11 11 11 11 11 11 12 12 13 13 14 14 14 15 15 16 17 18 18 19 19 19 19 20 20 20
10 10 10 10 9 9 9 9 9 9 9 10 10 10 10 10 11 11 11 11 11 11 12 12 12 13 13 14 14 14 15 15 16 17 17 18 19 19 19 20 20 20 20
Wind_Direction
271 271 272 273 275 276 277 278 279 281 281 283 284 284 287 287 287 289 289 290 289 289 289 289 289 289 289 288 287 286 285 285 285 285 285 285 285 285 285 285 285 285 286
270 270 272 274 275 277 278 279 281 282 283 285 286 287 288 288 287 289 290 290 290 290 290 289 289 289 288 288 287 286 286 286 286 285 285 285 285 285 286 286 286 287 287
269 270 272 273 275 277 279 281 282 283 284 285 285 286 287 287 287 288 289 290 290 290 290 289 289 289 289 288 287 287 286 286 286 286 286 286 286 286 286 287 287 287 287
269 270 271 274 277 279 280 282 283 283 284 284 284 285 286 288 289 289 289 290 290 290 289 289 289 289 288 288 287 287 287 287 287 287 287 287 287 287 287 287 287 288 288
270 272 274 276 278 280 281 282 282 283 283 284 286 287 288 289 289 290 289 289 290 290 290 289 289 288 288 287 287 287 287 287 287 288 288 288 287 288 288 288 288 288 289
276 277 277 278 279 281 282 284 285 286 286 287 288 289 289 290 290 290 290 290 290 290 289 289 289 289 289 288 287 287 287 288 288 289 288 288 288 288 289 288 289 289 289
279 279 281 283 284 285 286 288 288 288 289 289 289 289 289 290 290 290 290 290 290 290 290 290 289 289 290 290 289 289 289 290 289 289 289 288 288 288 289 289 290 290 290
283 285 288 288 289 289 289 289 290 290 290 290 290 290 291 290 290 291 291 291 291 291 291 291 290 290 291 291 291 291 292 292 291 290 290 290 289 290 291 291 292 295 298
287 288 288 290 290 291 291 292 293 293 293 293 292 292 291 292 292 292 292 292 292 291 291 292 292 292 293 294 295 294 294 294 293 293 293 294 295 297 297 298 300 303 306
291 291 292 293 293 293 294 295 295 295 295 294 294 293 293 293 293 293 293 293 293 293 293 293 294 295 296 298 299 299 299 300 300 301 303 304 305 307 309 310 311 312 314
294 295 295 296 297 298 299 299 299 298 298 297 297 296 296 295 295 295 295 295 295 295 295 296 297 300 302 304 306 308 311 314 317 320 322 321 320 321 321 321 321 321 320
298 299 300 302 303 303 303 303 303 303 303 303 303 302 301 301 300 299 299 299 299 298 299 302 304 308 312 318 323 328 333 337 341 344 343 341 337 333 331 330 331 330 330
303 304 305 306 307 308 308 309 308 309 309 310 310 309 309 308 307 305 305 305 304 305 309 314 319 328 339 349 355 359 2 6 7 5 2 357 351 347 345 342 340 339 338
307 309 311 313 314 315 315 315 315 316 317 318 319 319 319 320 320 320 321 325 329 335 342 354 7 18 28 33 34 34 32 28 23 17 10 3 358 355 353 351 349 347 344
312 315 318 320 321 321 321 321 322 323 326 328 329 332 335 339 343 349 356 4 17 33 44 50 57 64 68 64 56 49 43 37 29 20 12 7 5 2 0 358 355 351 350
316 319 322 325 326 328 329 331 331 333 336 340 345 351 358 5 12 20 31 45 57 61 67 73 75 76 72 65 56 48 40 34 26 20 16 13 10 7 5 4 2 359 357
322 324 327 331 333 336 339 341 343 346 349 354 359 7 15 24 32 42 53 63 70 75 76 77 76 74 69 60 53 46 39 35 31 26 21 17 13 11 9 8 7 6 6
327 330 333 338 343 346 349 350 352 356 1 8 16 25 33 40 49 58 66 74 79 79 77 75 72 68 62 56 51 45 42 37 31 26 22 18 16 14 14 13 13 14 15
339 341 344 349 353 355 357 359 3 7 15 25 33 40 47 53 60 67 74 79 81 79 75 71 67 62 57 53 48 43 38 33 28 24 21 19 18 18 18 18 18 20 21
354 355 356 357 359 2 6 12 19 26 33 39 45 52 57 61 67 73 77 80 79 76 71 66 61 57 53 50 44 39 35 31 27 24 22 21 22 22 23 23 24 25 26
359 1 3 5 8 14 22 30 37 42 44 49 55 60 64 67 72 75 77 77 74 70 65 60 56 54 52 47 42 38 34 31 28 26 25 25 26 26 27 28 29 30 32
6 10 15 19 23 29 35 41 46 46 49 57 63 66 68 69 73 74 73 72 68 64 59 55 53 52 49 47 42 38 34 31 30 30 30 29 30 31 32 33 34 34 36
19 23 26 29 35 39 43 47 51 54 59 65 67 69 68 69 70 70 68 65 63 59 56 54 52 51 49 44 40 37 34 33 33 32 32 33 33 33 34 35 35 36 36
26 28 32 36 41 45 49 54 59 62 65 67 67 67 67 66 65 64 63 62 59 57 56 56 55 51 46 42 39 37 36 36 35 35 36 36 35 34 35 36 36 37 39
35 36 38 40 45 49 54 59 63 64 66 66 65 65 65 63 61 62 62 61 60 58 58 57 52 48 44 40 38 38 37 38 38 38 38 37 37 37 37 37 38 39 41
44 44 45 48 53 59 62 64 66 67 67 66 65 64 63 63 63 64 63 62 60 60 57 52 48 45 42 41 41 40 40 39 39 39 38 38 39 39 39 40 41 41 43
Height
5794 5792 5791 5789 5788 5786 5784 5782 5779 5776 5773 5770 5767 5763 5760 5757 5754 5751 5747 5744 5740 5736 5732 5728 5724 5719 5715 5710 5706 5701 5697 5693 5690 5685 5679 5674 5669 5665 5660 5656 5652 5648 5643
5784 5783 5781 5779 5778 5776 5773 5771 5768 5765 5762 5758 5755 5751 5748 5744 5741 5737 5733 5729 5725 5720 5716 5711 5707 5703 5698 5693 5689 5684 5680 5676 5673 5669 5663 5658 5653 5649 5645 5641 5636 5632 5628
5774 5773 5771 5769 5768 5765 5763 5760 5757 5754 5750 5746 5743 5739 5734 5730 5726 5722 5718 5713 5709 5704 5700 5695 5690 5686 5681 5676 5672 5668 5663 5659 5655 5652 5648 5642 5638 5633 5630 5626 5622 5617 5613
5764 5763 5761 5759 5757 5754 5752 5749 5745 5742 5738 5734 5730 5725 5720 5716 5711 5707 5702 5697 5692 5688 5683 5678 5673 5669 5664 5660 5655 5651 5647 5643 5639 5636 5632 5627 5623 5619 5615 5612 5608 5603 5599
5754 5753 5750 5748 5745 5743 5740 5736 5733 5729 5725 5720 5716 5711 5706 5701 5696 5691 5686 5681 5676 5671 5666 5662 5657 5652 5647 5643 5639 5635 5631 5628 5624 5620 5617 5613 5609 5605 5602 5598 5595 5592 5587
5744 5742 5740 5737 5734 5731 5728 5724 5720 5716 5711 5707 5702 5697 5691 5686 5681 5675 5670 5665 5660 5655 5650 5646 5641 5636 5632 5627 5624 5620 5617 5613 5610 5606 5603 5599 5596 5593 5590 5587 5584 5582 5578
5734 5731 5729 5726 5723 5719 5716 5712 5707 5703 5698 5693 5688 5682 5677 5671 5666 5661 5655 5650 5645 5640 5636 5631 5626 5622 5618 5614 5610 5606 5603 5600 5598 5595 5592 5588 5586 5583 5581 5578 5575 5573 5571
5723 5721 5718 5715 5712 5708 5704 5699 5695 5690 5685 5680 5674 5669 5663 5657 5651 5646 5641 5636 5631 5627 5622 5618 5614 5610 5606 5602 5599 5595 5592 5590 5587 5584 5582 5580 5578 5576 5573 5572 5569 5567 5564
5713 5710 5707 5704 5700 5696 5691 5687 5682 5677 5672 5666 5660 5655 5649 5643 5638 5633 5628 5623 5619 5615 5611 5607 5603 5600 5596 5593 5590 5587 5584 5582 5580 5578 5576 5574 5572 5570 5568 5566 5564 5562 5559
5703 5700 5697 5693 5689 5684 5679 5674 5669 5664 5658 5653 5647 5642 5636 5630 5626 5621 5616 5612 5608 5604 5601 5598 5594 5592 5589 5586 5584 5581 5579 5577 5575 5574 5572 5570 5568 5567 5565 5563 5560 5558 5554
5695 5691 5687 5683 5678 5673 5668 5663 5657 5652 5647 5641 5636 5630 5624 5619 5615 5610 5607 5603 5599 5596 5593 5591 5588 5586 5584 5582 5580 5578 5576 5574 5573 5571 5570 5568 5566 5564 5562 5560 5557 5554 5551
5686 5682 5678 5674 5669 5664 5659 5653 5648 5642 5637 5632 5626 5621 5615 5610 5606 5602 5599 5595 5592 5590 5588 5586 5584 5583 5581 5580 5578 5576 5575 5574 5572 5571 5569 5567 5565 5563 5560 5557 5554 5551 5548
5678 5674 5670 5665 5660 5655 5650 5645 5640 5635 5629 5624 5619 5614 5609 5604 5600 5596 5593 5590 5588 5586 5585 5584 5583 5581 5580 5579 5578 5576 5575 5574 5572 5571 5569 5567 5564 5562 5559 5556 5552 5549 5545
5671 5667 5663 5658 5653 5648 5643 5638 5633 5628 5623 5618 5613 5609 5604 5600 5596 5593 5590 5588 5586 5585 5584 5583 5582 5581 5580 5580 5579 5577 5576 5575 5573 5571 5569 5567 5564 5561 5558 5554 5551 5547 5543
5666 5662 5657 5652 5648 5643 5638 5633 5629 5624 5619 5615 5610 5606 5602 5598 5595 5592 5590 5588 5587 5586 5585 5584 5584 5583 5582 5581 5580 5579 5578 5576 5574 5572 5570 5567 5564 5560 5557 5553 5549 5546 5542
5661 5657 5652 5648 5643 5639 5634 5630 5625 5621 5617 5613 5609 5605 5602 5599 5596 5593 5591 5590 5589 5588 5587 5587 5586 5585 5584 5584 5582 5581 5579 5578 5575 5573 5570 5567 5564 5560 5557 5553 5549 5545 5541
5656 5652 5648 5644 5640 5636 5632 5628 5624 5621 5617 5613 5609 5606 5603 5601 5598 5596 5594 5593 5592 5591 5590 5590 5589 5588 5587 5586 5585 5583 5581 5579 5577 5574 5571 5568 5564 5561 5557 5553 5549 5546 5542
5652 5648 5645 5642 5638 5635 5631 5627 5624 5620 5617 5614 5611 5608 5606 5603 5601 5599 5597 5596 5596 5595 5594 5593 5592 5591 5590 5589 5587 5586 5583 5581 5579 5576 5572 5569 5565 5562 5558 5554 5550 5547 5543
5649 5646 5643 5640 5637 5634 5631 5627 5624 5621 5618 5615 5613 5610 5608 5606 5604 5603 5601 5600 5599 5598 5598 5597 5596 5595 5593 5592 5590 5588 5586 5583 5580 5577 5574 5571 5567 5563 5560 5556 5552 5548 5545
5648 5645 5642 5639 5636 5634 5631 5628 5625 5622 5620 5617 5615 5613 5612 5610 5608 5607 5606 5604 5604 5603 5602 5601 5599 5598 5596 5594 5593 5590 5588 5585 5582 5579 5576 5572 5569 5565 5562 5558 5554 5551 5547
5647 5644 5642 5639 5636 5634 5632 5629 5627 5624 5622 5620 5618 5617 5615 5614 5612 5611 5610 5609 5608 5607 5606 5604 5603 5601 5599 5597 5595 5593 5590 5588 5585 5582 5578 5575 5571 5568 5564 5560 5557 5553 5550
5647 5644 5642 5640 5637 5635 5633 5631 5629 5627 5625 5623 5622 5620 5619 5618 5616 5615 5614 5613 5612 5611 5609 5608 5606 5604 5602 5600 5598 5596 5593 5590 5587 5584 5581 5577 5574 5570 5567 5563 5560 5557 5553
5647 5645 5643 5641 5639 5637 5635 5633 5631 5630 5628 5627 5626 5624 5623 5622 5620 5619 5618 5617 5615 5614 5612 5611 5609 5607 5605 5603 5601 5598 5596 5593 5590 5587 5584 5580 5577 5574 5570 5567 5564 5560 5557
5648 5647 5645 5643 5641 5639 5637 5636 5634 5633 5632 5630 5629 5628 5627 5625 5624 5623 5621 5620 5618 5617 5615 5614 5612 5610 5608 5606 5604 5601 5599 5596 5593 5590 5587 5584 5580 5577 5574 5571 5567 5564 5561
5650 5648 5646 5645 5643 5641 5640 5639 5637 5636 5635 5634 5633 5631 5630 5629 5627 5626 5625 5623 5622 5620 5619 5617 5615 5613 5611 5609 5607 5604 5602 5599 5596 5593 5590 5587 5584 5581 5578 5575 5571 5568 5565
5652 5650 5648 5646 5645 5643 5642 5641 5640 5639 5638 5637 5636 5634 5633 5632 5631 5629 5628 5626 5625 5623 5622 5620 5618 5616 5614 5612 5610 5607 5605 5602 5600 5597 5594 5591 5588 5585 5582 5579 5575 5572 5569